Time,TemperatureF,DewpointF,PressureIn,WindDirection,WindDirectionDegrees,WindSpeedMPH,WindSpeedGustMPH,Humidity,HourlyPrecipIn,Conditions,Clouds,dailyrainin,SoftwareType,DateUTC
2013-01-18 00:05:00,11.3,4.8,30.37,WSW,247,0.0,0.0,75,0.00,,,0.00,WUHU21023XXSP,2013-01-18 06:05:00,
2013-01-18 00:12:00,11.1,4.6,30.38,WSW,247,0.0,0.0,75,0.00,,,0.00,WUHU21023XXSP,2013-01-18 06:12:00,
2013-01-18 00:18:00,11.1,4.4,30.39,WSW,247,0.0,0.0,74,0.00,,,0.00,WUHU21023XXSP,2013-01-18 06:18:00,
2013-01-18 00:25:00,10.9,4.2,30.39,WSW,247,0.0,0.0,74,0.00,,,0.00,WUHU21023XXSP,2013-01-18 06:25:00,
2013-01-18 00:31:00,10.9,4.5,30.38,WSW,247,0.0,0.0,75,0.00,,,0.00,WUHU21023XXSP,2013-01-18 06:31:00,
2013-01-18 00:38:00,10.9,4.5,30.38,WSW,247,0.0,0.0,75,0.00,,,0.00,WUHU21023XXSP,2013-01-18 06:38:00,
2013-01-18 00:44:00,10.8,4.3,30.39,WSW,247,0.0,0.0,75,0.00,,,0.00,WUHU21023XXSP,2013-01-18 06:44:00,
2013-01-18 00:50:00,10.8,4.3,30.39,WSW,247,0.0,0.0,75,0.00,,,0.00,WUHU21023XXSP,2013-01-18 06:50:00,
2013-01-18 00:57:00,10.8,4.3,30.38,WSW,247,0.0,0.0,75,0.00,,,0.00,WUHU21023XXSP,2013-01-18 06:57:00,
2013-01-18 01:03:00,10.8,4.3,30.38,WSW,247,0.0,0.0,75,0.00,,,0.00,WUHU21023XXSP,2013-01-18 07:03:00,
2013-01-18 01:10:00,10.8,4.3,30.38,WSW,247,0.0,0.0,75,0.00,,,0.00,WUHU21023XXSP,2013-01-18 07:10:00,
2013-01-18 01:16:00,10.8,4.3,30.38,WSW,247,0.0,0.0,75,0.00,,,0.00,WUHU21023XXSP,2013-01-18 07:16:00,
2013-01-18 01:22:00,10.8,4.3,30.38,WSW,247,0.0,0.0,75,0.00,,,0.00,WUHU21023XXSP,2013-01-18 07:22:00,
2013-01-18 01:29:00,10.8,4.6,30.38,WSW,247,0.0,0.0,76,0.00,,,0.00,WUHU21023XXSP,2013-01-18 07:29:00,
2013-01-18 01:35:00,10.9,4.7,30.38,WSW,247,0.0,0.0,76,0.00,,,0.00,WUHU21023XXSP,2013-01-18 07:35:00,
2013-01-18 01:42:00,10.9,4.7,30.38,WSW,247,0.0,0.0,76,0.00,,,0.00,WUHU21023XXSP,2013-01-18 07:42:00,
2013-01-18 01:48:00,11.1,4.9,30.38,WSW,247,0.0,0.0,76,0.00,,,0.00,WUHU21023XXSP,2013-01-18 07:48:00,
2013-01-18 01:55:00,11.1,4.9,30.38,WSW,247,0.0,0.0,76,0.00,,,0.00,WUHU21023XXSP,2013-01-18 07:55:00,
2013-01-18 02:01:00,11.1,4.9,30.37,WSW,247,0.0,0.0,76,0.00,,,0.00,WUHU21023XXSP,2013-01-18 08:01:00,
2013-01-18 02:08:00,11.3,5.4,30.38,WSW,247,0.0,0.0,77,0.00,,,0.00,WUHU21023XXSP,2013-01-18 08:08:00,
2013-01-18 02:14:00,11.7,5.8,30.39,WSW,247,0.0,0.0,77,0.00,,,0.00,WUHU21023XXSP,2013-01-18 08:14:00,
2013-01-18 02:20:00,12.0,6.1,30.39,WSW,247,0.0,0.0,77,0.00,,,0.00,WUHU21023XXSP,2013-01-18 08:20:00,
2013-01-18 02:27:00,12.4,6.5,30.39,WSW,247,0.0,0.0,77,0.00,,,0.00,WUHU21023XXSP,2013-01-18 08:27:00,
2013-01-18 02:33:00,12.7,6.8,30.39,WSW,247,0.0,0.0,77,0.00,,,0.00,WUHU21023XXSP,2013-01-18 08:33:00,
2013-01-18 02:40:00,12.9,7.3,30.40,WSW,247,0.0,0.0,78,0.00,,,0.00,WUHU21023XXSP,2013-01-18 08:40:00,
2013-01-18 02:46:00,13.3,7.7,30.40,WSW,247,0.0,0.0,78,0.00,,,0.00,WUHU21023XXSP,2013-01-18 08:46:00,
2013-01-18 02:52:00,13.3,7.7,30.40,WSW,247,0.0,0.0,78,0.00,,,0.00,WUHU21023XXSP,2013-01-18 08:52:00,
2013-01-18 02:59:00,13.6,8.0,30.40,WSW,247,0.0,0.0,78,0.00,,,0.00,WUHU21023XXSP,2013-01-18 08:59:00,
2013-01-18 03:05:00,13.8,8.2,30.39,WSW,247,0.0,0.0,78,0.00,,,0.00,WUHU21023XXSP,2013-01-18 09:05:00,
2013-01-18 03:12:00,13.8,8.2,30.39,WSW,247,0.0,0.0,78,0.00,,,0.00,WUHU21023XXSP,2013-01-18 09:12:00,
2013-01-18 03:18:00,14.2,8.5,30.39,WSW,247,0.0,0.0,78,0.00,,,0.00,WUHU21023XXSP,2013-01-18 09:18:00,
2013-01-18 03:25:00,14.2,8.5,30.39,WSW,247,0.0,0.0,78,0.00,,,0.00,WUHU21023XXSP,2013-01-18 09:25:00,
2013-01-18 03:31:00,14.4,8.7,30.39,WSW,247,0.0,0.0,78,0.00,,,0.00,WUHU21023XXSP,2013-01-18 09:31:00,
2013-01-18 03:37:00,14.7,9.1,30.38,WSW,247,0.0,0.0,78,0.00,,,0.00,WUHU21023XXSP,2013-01-18 09:37:00,
2013-01-18 03:44:00,15.1,9.4,30.38,WSW,247,0.0,0.0,78,0.00,,,0.00,WUHU21023XXSP,2013-01-18 09:44:00,
2013-01-18 03:50:00,15.4,9.8,30.38,WSW,247,0.0,0.0,78,0.00,,,0.00,WUHU21023XXSP,2013-01-18 09:50:00,
2013-01-18 03:57:00,15.6,10.0,30.37,WSW,247,0.0,0.0,78,0.00,,,0.00,WUHU21023XXSP,2013-01-18 09:57:00,
2013-01-18 04:03:00,16.0,10.3,30.37,WSW,247,0.0,0.0,78,0.00,,,0.00,WUHU21023XXSP,2013-01-18 10:03:00,
2013-01-18 04:10:00,16.2,10.5,30.37,WSW,247,0.0,0.0,78,0.00,,,0.00,WUHU21023XXSP,2013-01-18 10:10:00,
2013-01-18 04:16:00,16.3,10.3,30.36,WSW,247,0.0,0.0,77,0.00,,,0.00,WUHU21023XXSP,2013-01-18 10:16:00,
2013-01-18 04:22:00,16.3,10.3,30.36,WSW,247,0.0,0.0,77,0.00,,,0.00,WUHU21023XXSP,2013-01-18 10:22:00,
2013-01-18 04:29:00,16.5,10.5,30.36,WSW,247,0.0,0.0,77,0.00,,,0.00,WUHU21023XXSP,2013-01-18 10:29:00,
2013-01-18 04:35:00,16.9,10.5,30.36,WSW,247,0.0,0.0,76,0.00,,,0.00,WUHU21023XXSP,2013-01-18 10:35:00,
2013-01-18 04:42:00,16.9,10.5,30.35,SSE,157,0.0,0.0,76,0.00,,,0.00,WUHU21023XXSP,2013-01-18 10:42:00,
2013-01-18 04:48:00,17.2,10.9,30.35,SE,135,0.0,0.0,76,0.00,,,0.00,WUHU21023XXSP,2013-01-18 10:48:00,
2013-01-18 04:55:00,17.2,10.6,30.34,SE,135,0.0,0.0,75,0.00,,,0.00,WUHU21023XXSP,2013-01-18 10:55:00,
2013-01-18 05:01:00,17.2,10.6,30.34,ESE,112,0.0,0.0,75,0.00,,,0.00,WUHU21023XXSP,2013-01-18 11:01:00,
2013-01-18 05:07:00,17.2,10.6,30.34,SE,135,0.0,0.0,75,0.00,,,0.00,WUHU21023XXSP,2013-01-18 11:07:00,
2013-01-18 05:14:00,17.4,10.8,30.33,SE,135,0.0,0.0,75,0.00,,,0.00,WUHU21023XXSP,2013-01-18 11:14:00,
2013-01-18 05:20:00,17.4,10.8,30.33,SE,135,0.0,0.0,75,0.00,,,0.00,WUHU21023XXSP,2013-01-18 11:20:00,
2013-01-18 05:27:00,17.4,10.5,30.33,SE,135,0.0,0.0,74,0.00,,,0.00,WUHU21023XXSP,2013-01-18 11:27:00,
2013-01-18 05:33:00,17.4,10.5,30.32,SSE,157,0.0,0.0,74,0.00,,,0.00,WUHU21023XXSP,2013-01-18 11:33:00,
2013-01-18 05:39:00,17.8,10.8,30.31,SSE,157,7.0,7.0,74,0.00,,,0.00,WUHU21023XXSP,2013-01-18 11:39:00,
2013-01-18 05:46:00,17.8,10.8,30.31,SE,135,4.0,7.0,74,0.00,,,0.00,WUHU21023XXSP,2013-01-18 11:46:00,
2013-01-18 05:52:00,18.0,10.7,30.31,SE,135,0.0,7.0,73,0.00,,,0.00,WUHU21023XXSP,2013-01-18 11:52:00,
2013-01-18 05:59:00,18.0,10.7,30.31,SE,135,5.0,5.0,73,0.00,,,0.00,WUHU21023XXSP,2013-01-18 11:59:00,
2013-01-18 06:05:00,18.1,10.8,30.32,SE,135,3.0,7.0,73,0.00,,,0.00,WUHU21023XXSP,2013-01-18 12:05:00,
2013-01-18 06:12:00,18.1,10.8,30.32,SSE,157,0.0,7.0,73,0.00,,,0.00,WUHU21023XXSP,2013-01-18 12:12:00,
2013-01-18 06:18:00,18.3,11.0,30.31,SSE,157,3.0,4.0,73,0.00,,,0.00,WUHU21023XXSP,2013-01-18 12:18:00,
2013-01-18 06:24:00,18.3,11.0,30.31,SSE,157,0.0,7.0,73,0.00,,,0.00,WUHU21023XXSP,2013-01-18 12:24:00,
2013-01-18 06:31:00,18.5,11.2,30.31,SSE,157,6.0,7.0,73,0.00,,,0.00,WUHU21023XXSP,2013-01-18 12:31:00,
2013-01-18 06:37:00,18.5,11.2,30.30,ESE,112,0.0,6.0,73,0.00,,,0.00,WUHU21023XXSP,2013-01-18 12:37:00,
2013-01-18 06:44:00,18.7,11.4,30.30,SE,135,0.0,0.0,73,0.00,,,0.00,WUHU21023XXSP,2013-01-18 12:44:00,
2013-01-18 06:50:00,18.7,11.4,30.30,SE,135,5.0,5.0,73,0.00,,,0.00,WUHU21023XXSP,2013-01-18 12:50:00,
2013-01-18 06:57:00,18.9,11.5,30.30,SSE,157,0.0,7.0,73,0.00,,,0.00,WUHU21023XXSP,2013-01-18 12:57:00,
2013-01-18 07:03:00,19.0,11.7,30.30,SSE,157,9.0,9.0,73,0.00,,,0.00,WUHU21023XXSP,2013-01-18 13:03:00,
2013-01-18 07:09:00,19.0,11.7,30.29,SE,135,0.0,9.0,73,0.00,,,0.00,WUHU21023XXSP,2013-01-18 13:09:00,
2013-01-18 07:16:00,19.2,11.9,30.29,SSE,157,0.0,6.0,73,0.00,,,0.00,WUHU21023XXSP,2013-01-18 13:16:00,
2013-01-18 07:22:00,19.2,11.9,30.29,SE,135,7.0,7.0,73,0.00,,,0.00,WUHU21023XXSP,2013-01-18 13:22:00,
2013-01-18 07:29:00,19.2,11.9,30.30,SSE,157,7.0,7.0,73,0.00,,,0.00,WUHU21023XXSP,2013-01-18 13:29:00,
2013-01-18 07:35:00,19.6,12.2,30.30,SSE,157,7.0,7.0,73,0.00,,,0.00,WUHU21023XXSP,2013-01-18 13:35:00,
2013-01-18 07:41:00,19.6,12.5,30.29,SSE,157,6.0,7.0,74,0.00,,,0.00,WUHU21023XXSP,2013-01-18 13:41:00,
2013-01-18 07:48:00,19.6,12.5,30.29,SE,135,3.0,7.0,74,0.00,,,0.00,WUHU21023XXSP,2013-01-18 13:48:00,
2013-01-18 07:54:00,19.9,12.9,30.29,SSE,157,5.0,5.0,74,0.00,,,0.00,WUHU21023XXSP,2013-01-18 13:54:00,
2013-01-18 08:01:00,19.9,12.9,30.29,SSE,157,0.0,5.0,74,0.00,,,0.00,WUHU21023XXSP,2013-01-18 14:01:00,
2013-01-18 08:07:00,20.3,13.2,30.29,South,180,0.0,4.0,74,0.00,,,0.00,WUHU21023XXSP,2013-01-18 14:07:00,
2013-01-18 08:14:00,20.5,13.7,30.28,SSE,157,0.0,4.0,75,0.00,,,0.00,WUHU21023XXSP,2013-01-18 14:14:00,
2013-01-18 08:20:00,20.8,14.4,30.28,SSE,157,0.0,0.0,76,0.00,,,0.00,WUHU21023XXSP,2013-01-18 14:20:00,
2013-01-18 08:26:00,21.0,14.6,30.27,SSE,157,0.0,0.0,76,0.00,,,0.00,WUHU21023XXSP,2013-01-18 14:26:00,
2013-01-18 08:33:00,21.6,15.1,30.27,SE,135,8.0,8.0,76,0.00,,,0.00,WUHU21023XXSP,2013-01-18 14:33:00,
2013-01-18 08:39:00,21.9,15.5,30.26,SE,135,0.0,8.0,76,0.00,,,0.00,WUHU21023XXSP,2013-01-18 14:39:00,
2013-01-18 08:46:00,22.3,16.1,30.26,South,180,8.0,8.0,77,0.00,,,0.00,WUHU21023XXSP,2013-01-18 14:46:00,
2013-01-18 08:52:00,22.6,16.2,30.26,South,180,7.0,8.0,76,0.00,,,0.00,WUHU21023XXSP,2013-01-18 14:52:00,
2013-01-18 08:59:00,23.0,16.6,30.25,South,180,8.0,8.0,76,0.00,,,0.00,WUHU21023XXSP,2013-01-18 14:59:00,
2013-01-18 09:05:00,23.2,16.7,30.25,SSW,202,3.0,8.0,76,0.00,,,0.00,WUHU21023XXSP,2013-01-18 15:05:00,
2013-01-18 09:11:00,23.5,17.1,30.25,SSW,202,7.0,7.0,76,0.00,,,0.00,WUHU21023XXSP,2013-01-18 15:11:00,
2013-01-18 09:18:00,23.7,17.2,30.24,SE,135,7.0,7.0,76,0.00,,,0.00,WUHU21023XXSP,2013-01-18 15:18:00,
2013-01-18 09:24:00,24.1,17.6,30.24,SSW,202,0.0,7.0,76,0.00,,,0.00,WUHU21023XXSP,2013-01-18 15:24:00,
2013-01-18 09:31:00,24.6,17.8,30.23,South,180,7.0,7.0,75,0.00,,,0.00,WUHU21023XXSP,2013-01-18 15:31:00,
2013-01-18 09:37:00,25.2,18.3,30.23,SSW,202,0.0,7.0,75,0.00,,,0.00,WUHU21023XXSP,2013-01-18 15:37:00,
2013-01-18 09:44:00,25.7,18.5,30.23,SSW,202,6.0,9.0,74,0.00,,,0.00,WUHU21023XXSP,2013-01-18 15:44:00,
2013-01-18 09:50:00,26.2,18.7,30.22,SSW,202,8.0,9.0,73,0.00,,,0.00,WUHU21023XXSP,2013-01-18 15:50:00,
2013-01-18 09:56:00,26.6,19.1,30.21,South,180,9.0,9.0,73,0.00,,,0.00,WUHU21023XXSP,2013-01-18 15:56:00,
2013-01-18 10:03:00,27.1,19.6,30.21,SSE,157,0.0,9.0,73,0.00,,,0.00,WUHU21023XXSP,2013-01-18 16:03:00,
2013-01-18 10:09:00,27.3,19.5,30.21,SW,225,0.0,14.0,72,0.00,,,0.00,WUHU21023XXSP,2013-01-18 16:09:00,
2013-01-18 10:16:00,28.0,20.2,30.19,South,180,5.0,14.0,72,0.00,,,0.00,WUHU21023XXSP,2013-01-18 16:16:00,
2013-01-18 10:22:00,28.8,20.9,30.18,SE,135,6.0,9.0,72,0.00,,,0.00,WUHU21023XXSP,2013-01-18 16:22:00,
2013-01-18 10:29:00,29.8,21.5,30.17,South,180,11.0,11.0,71,0.00,,,0.00,WUHU21023XXSP,2013-01-18 16:29:00,
2013-01-18 10:35:00,30.6,21.9,30.16,SE,135,3.0,11.0,70,0.00,,,0.00,WUHU21023XXSP,2013-01-18 16:35:00,
2013-01-18 10:41:00,31.3,22.3,30.15,SSW,202,5.0,9.0,69,0.00,,,0.00,WUHU21023XXSP,2013-01-18 16:41:00,
2013-01-18 10:48:00,32.5,23.5,30.14,SSW,202,5.0,8.0,69,0.00,,,0.00,WUHU21023XXSP,2013-01-18 16:48:00,
2013-01-18 10:54:00,33.6,24.1,30.13,SW,225,16.0,16.0,68,0.00,,,0.00,WUHU21023XXSP,2013-01-18 16:54:00,
2013-01-18 11:01:00,34.5,24.3,30.13,SE,135,11.0,16.0,66,0.00,,,0.00,WUHU21023XXSP,2013-01-18 17:01:00,
2013-01-18 11:07:00,35.2,24.3,30.11,SW,225,10.0,11.0,64,0.00,,,0.00,WUHU21023XXSP,2013-01-18 17:07:00,
2013-01-18 11:14:00,35.6,24.6,30.11,SW,225,10.0,11.0,64,0.00,,,0.00,WUHU21023XXSP,2013-01-18 17:14:00,
2013-01-18 11:20:00,36.0,24.8,30.10,SSE,157,6.0,11.0,64,0.00,,,0.00,WUHU21023XXSP,2013-01-18 17:20:00,
2013-01-18 11:26:00,36.3,25.3,30.09,SW,225,3.0,9.0,64,0.00,,,0.00,WUHU21023XXSP,2013-01-18 17:26:00,
2013-01-18 11:33:00,36.5,24.7,30.09,SW,225,10.0,13.0,62,0.00,,,0.00,WUHU21023XXSP,2013-01-18 17:33:00,
2013-01-18 11:39:00,36.7,25.3,30.08,SSW,202,8.0,10.0,63,0.00,,,0.00,WUHU21023XXSP,2013-01-18 17:39:00,
2013-01-18 11:46:00,37.2,25.4,30.07,WSW,247,17.0,17.0,62,0.00,,,0.00,WUHU21023XXSP,2013-01-18 17:46:00,
2013-01-18 11:52:00,37.2,25.4,30.07,South,180,15.0,17.0,62,0.00,,,0.00,WUHU21023XXSP,2013-01-18 17:52:00,
2013-01-18 11:59:00,37.2,25.4,30.06,South,180,12.0,15.0,62,0.00,,,0.00,WUHU21023XXSP,2013-01-18 17:59:00,
2013-01-18 12:05:00,37.2,25.4,30.05,SSE,157,10.0,13.0,62,0.00,,,0.00,WUHU21023XXSP,2013-01-18 18:05:00,
2013-01-18 12:11:00,37.4,25.6,30.05,SW,225,22.0,22.0,62,0.00,,,0.00,WUHU21023XXSP,2013-01-18 18:11:00,
2013-01-18 12:18:00,37.6,25.7,30.04,SSE,157,6.0,22.0,62,0.00,,,0.00,WUHU21023XXSP,2013-01-18 18:18:00,
2013-01-18 12:24:00,37.9,26.0,30.03,South,180,20.0,20.0,62,0.00,,,0.00,WUHU21023XXSP,2013-01-18 18:24:00,
2013-01-18 12:31:00,37.8,25.9,30.03,SW,225,26.0,26.0,62,0.00,,,0.00,WUHU21023XXSP,2013-01-18 18:31:00,
2013-01-18 12:38:00,37.9,26.0,30.02,SSW,202,21.0,26.0,62,0.00,,,0.00,WUHU21023XXSP,2013-01-18 18:38:00,
2013-01-18 12:44:00,37.8,25.9,30.01,WSW,247,13.0,21.0,62,0.00,,,0.00,WUHU21023XXSP,2013-01-18 18:44:00,
2013-01-18 12:50:00,37.8,26.3,30.01,SW,225,15.0,15.0,63,0.00,,,0.00,WUHU21023XXSP,2013-01-18 18:50:00,
2013-01-18 12:57:00,38.1,26.6,30.00,SW,225,20.0,20.0,63,0.00,,,0.00,WUHU21023XXSP,2013-01-18 18:57:00,
2013-01-18 13:03:00,38.3,26.7,30.00,SSW,202,19.0,20.0,63,0.00,,,0.00,WUHU21023XXSP,2013-01-18 19:03:00,
2013-01-18 13:10:00,38.3,26.7,30.00,SE,135,13.0,19.0,63,0.00,,,0.00,WUHU21023XXSP,2013-01-18 19:10:00,
2013-01-18 13:16:00,38.5,26.9,29.99,South,180,17.0,17.0,63,0.00,,,0.00,WUHU21023XXSP,2013-01-18 19:16:00,
2013-01-18 13:23:00,38.8,27.2,29.98,SW,225,28.0,28.0,63,0.00,,,0.00,WUHU21023XXSP,2013-01-18 19:23:00,
2013-01-18 13:30:00,38.8,27.2,29.98,SSW,202,9.0,28.0,63,0.00,,,0.00,WUHU21023XXSP,2013-01-18 19:30:00,
2013-01-18 13:36:00,38.8,27.2,29.98,SSW,202,19.0,21.0,63,0.00,,,0.00,WUHU21023XXSP,2013-01-18 19:36:00,
2013-01-18 13:42:00,38.8,27.2,29.97,SSE,157,12.0,19.0,63,0.00,,,0.00,WUHU21023XXSP,2013-01-18 19:42:00,
2013-01-18 13:49:00,39.4,28.1,29.96,WSW,247,9.0,22.0,64,0.00,,,0.00,WUHU21023XXSP,2013-01-18 19:49:00,
2013-01-18 13:55:00,40.1,28.5,29.95,SSW,202,13.0,19.0,63,0.00,,,0.00,WUHU21023XXSP,2013-01-18 19:55:00,
2013-01-18 14:02:00,40.6,28.6,29.95,SW,225,12.0,13.0,62,0.00,,,0.00,WUHU21023XXSP,2013-01-18 20:02:00,
2013-01-18 14:08:00,41.0,28.4,29.95,SW,225,20.0,20.0,61,0.00,,,0.00,WUHU21023XXSP,2013-01-18 20:08:00,
2013-01-18 14:15:00,41.5,29.1,29.94,South,180,6.0,20.0,61,0.00,,,0.00,WUHU21023XXSP,2013-01-18 20:15:00,
2013-01-18 14:21:00,41.9,29.4,29.93,SSE,157,16.0,20.0,61,0.00,,,0.00,WUHU21023XXSP,2013-01-18 20:21:00,
2013-01-18 14:27:00,41.7,29.2,29.93,South,180,14.0,16.0,61,0.00,,,0.00,WUHU21023XXSP,2013-01-18 20:27:00,
2013-01-18 14:34:00,41.5,29.2,29.93,SW,225,6.0,14.0,61,0.00,,,0.00,WUHU21023XXSP,2013-01-18 20:34:00,
2013-01-18 14:40:00,41.5,29.1,29.92,SW,225,11.0,11.0,61,0.00,,,0.00,WUHU21023XXSP,2013-01-18 20:40:00,
2013-01-18 14:47:00,41.7,29.2,29.91,South,180,9.0,11.0,61,0.00,,,0.00,WUHU21023XXSP,2013-01-18 20:47:00,
2013-01-18 14:54:00,42.1,29.6,29.91,SSE,157,5.0,11.0,61,0.00,,,0.00,WUHU21023XXSP,2013-01-18 20:54:00,
2013-01-18 15:00:00,42.4,29.9,29.92,SE,135,12.0,12.0,61,0.00,,,0.00,WUHU21023XXSP,2013-01-18 21:00:00,
2013-01-18 15:07:00,42.6,29.9,29.91,WSW,247,17.0,17.0,61,0.00,,,0.00,WUHU21023XXSP,2013-01-18 21:07:00,
2013-01-18 15:13:00,42.6,30.1,29.91,SSW,202,11.0,17.0,61,0.00,,,0.00,WUHU21023XXSP,2013-01-18 21:13:00,
2013-01-18 15:19:00,42.4,29.9,29.91,SSW,202,8.0,22.0,61,0.00,,,0.00,WUHU21023XXSP,2013-01-18 21:19:00,
2013-01-18 15:26:00,42.4,29.9,29.91,SW,225,8.0,22.0,61,0.00,,,0.00,WUHU21023XXSP,2013-01-18 21:26:00,
2013-01-18 15:32:00,42.1,29.6,29.90,SW,225,11.0,11.0,61,0.00,,,0.00,WUHU21023XXSP,2013-01-18 21:32:00,
2013-01-18 15:39:00,41.9,29.8,29.90,SW,225,14.0,18.0,62,0.00,,,0.00,WUHU21023XXSP,2013-01-18 21:39:00,
2013-01-18 15:45:00,41.5,29.5,29.90,WSW,247,8.0,16.0,62,0.00,,,0.00,WUHU21023XXSP,2013-01-18 21:45:00,
2013-01-18 15:51:00,41.2,29.5,29.90,SW,225,12.0,18.0,63,0.00,,,0.00,WUHU21023XXSP,2013-01-18 21:51:00,
2013-01-18 15:58:00,40.8,29.6,29.90,SSW,202,1.0,18.0,64,0.00,,,0.00,WUHU21023XXSP,2013-01-18 21:58:00,
2013-01-18 16:04:00,40.3,29.4,29.89,SSW,202,21.0,21.0,65,0.00,,,0.00,WUHU21023XXSP,2013-01-18 22:04:00,
2013-01-18 16:11:00,40.1,29.2,29.89,South,180,9.0,21.0,65,0.00,,,0.00,WUHU21023XXSP,2013-01-18 22:11:00,
2013-01-18 16:17:00,39.9,29.4,29.89,SSE,157,13.0,14.0,66,0.00,,,0.00,WUHU21023XXSP,2013-01-18 22:17:00,
2013-01-18 16:23:00,39.7,29.8,29.89,SSW,202,10.0,14.0,67,0.00,,,0.00,WUHU21023XXSP,2013-01-18 22:23:00,
2013-01-18 16:30:00,39.6,29.4,29.89,SSE,157,9.0,10.0,67,0.00,,,0.00,WUHU21023XXSP,2013-01-18 22:30:00,
2013-01-18 16:36:00,39.4,29.2,29.89,SSW,202,7.0,11.0,67,0.00,,,0.00,WUHU21023XXSP,2013-01-18 22:36:00,
2013-01-18 16:43:00,39.4,29.6,29.90,SW,225,17.0,17.0,68,0.00,,,0.00,WUHU21023XXSP,2013-01-18 22:43:00,
2013-01-18 16:49:00,39.4,29.6,29.89,SSW,202,10.0,17.0,68,0.00,,,0.00,WUHU21023XXSP,2013-01-18 22:49:00,
2013-01-18 16:56:00,39.2,29.8,29.89,South,180,19.0,19.0,69,0.00,,,0.00,WUHU21023XXSP,2013-01-18 22:56:00,
2013-01-18 17:02:00,39.0,29.7,29.89,SSW,202,13.0,19.0,69,0.00,,,0.00,WUHU21023XXSP,2013-01-18 23:02:00,
2013-01-18 17:09:00,39.0,29.7,29.89,South,180,10.0,13.0,69,0.00,,,0.00,WUHU21023XXSP,2013-01-18 23:09:00,
2013-01-18 17:15:00,39.0,29.7,29.89,South,180,8.0,10.0,69,0.00,,,0.00,WUHU21023XXSP,2013-01-18 23:15:00,
2013-01-18 17:21:00,38.8,29.5,29.89,SSW,202,9.0,11.0,69,0.00,,,0.00,WUHU21023XXSP,2013-01-18 23:21:00,
2013-01-18 17:28:00,38.8,29.9,29.89,SSW,202,4.0,9.0,70,0.00,,,0.00,WUHU21023XXSP,2013-01-18 23:28:00,
2013-01-18 17:34:00,38.8,29.9,29.89,SSW,202,7.0,10.0,70,0.00,,,0.00,WUHU21023XXSP,2013-01-18 23:34:00,
2013-01-18 17:41:00,38.7,29.7,29.88,SSW,202,8.0,12.0,70,0.00,,,0.00,WUHU21023XXSP,2013-01-18 23:41:00,
2013-01-18 17:47:00,38.8,29.9,29.88,SSE,157,9.0,12.0,70,0.00,,,0.00,WUHU21023XXSP,2013-01-18 23:47:00,
2013-01-18 17:53:00,38.5,29.9,29.89,SSW,202,4.0,9.0,71,0.00,,,0.00,WUHU21023XXSP,2013-01-18 23:53:00,
2013-01-18 18:00:00,38.5,29.9,29.89,SSW,202,6.0,6.0,71,0.00,,,0.00,WUHU21023XXSP,2013-01-19 00:00:00,
2013-01-18 18:06:00,38.5,29.9,29.88,WSW,247,6.0,7.0,71,0.00,,,0.00,WUHU21023XXSP,2013-01-19 00:06:00,
2013-01-18 18:13:00,38.5,29.9,29.87,SSE,157,0.0,8.0,71,0.00,,,0.00,WUHU21023XXSP,2013-01-19 00:13:00,
2013-01-18 18:19:00,38.5,29.9,29.88,SSW,202,0.0,9.0,71,0.00,,,0.00,WUHU21023XXSP,2013-01-19 00:19:00,
2013-01-18 18:26:00,38.3,29.7,29.88,SE,135,4.0,5.0,71,0.00,,,0.00,WUHU21023XXSP,2013-01-19 00:26:00,
2013-01-18 18:32:00,38.1,29.6,29.87,SW,225,7.0,10.0,71,0.00,,,0.00,WUHU21023XXSP,2013-01-19 00:32:00,
2013-01-18 18:38:00,38.3,29.7,29.87,SSW,202,6.0,11.0,71,0.00,,,0.00,WUHU21023XXSP,2013-01-19 00:38:00,
2013-01-18 18:45:00,38.1,29.6,29.87,SSE,157,8.0,8.0,71,0.00,,,0.00,WUHU21023XXSP,2013-01-19 00:45:00,
2013-01-18 18:51:00,38.1,29.9,29.87,SSW,202,10.0,10.0,72,0.00,,,0.00,WUHU21023XXSP,2013-01-19 00:51:00,
2013-01-18 18:58:00,38.1,29.9,29.87,SSW,202,13.0,14.0,72,0.00,,,0.00,WUHU21023XXSP,2013-01-19 00:58:00,
2013-01-18 19:04:00,38.3,30.1,29.87,SW,225,5.0,14.0,72,0.00,,,0.00,WUHU21023XXSP,2013-01-19 01:04:00,
2013-01-18 19:11:00,38.1,29.9,29.87,ESE,112,6.0,9.0,72,0.00,,,0.00,WUHU21023XXSP,2013-01-19 01:11:00,
2013-01-18 19:17:00,38.1,29.9,29.88,SSW,202,15.0,15.0,72,0.00,,,0.00,WUHU21023XXSP,2013-01-19 01:17:00,
2013-01-18 19:23:00,38.1,29.9,29.88,South,180,5.0,15.0,72,0.00,,,0.00,WUHU21023XXSP,2013-01-19 01:23:00,
2013-01-18 19:30:00,38.1,29.9,29.87,SW,225,9.0,12.0,72,0.00,,,0.00,WUHU21023XXSP,2013-01-19 01:30:00,
2013-01-18 19:36:00,38.3,30.1,29.87,SSW,202,13.0,14.0,72,0.00,,,0.00,WUHU21023XXSP,2013-01-19 01:36:00,
2013-01-18 19:43:00,38.3,30.1,29.87,SW,225,5.0,15.0,72,0.00,,,0.00,WUHU21023XXSP,2013-01-19 01:43:00,
2013-01-18 19:49:00,38.5,30.2,29.87,SW,225,8.0,11.0,72,0.00,,,0.00,WUHU21023XXSP,2013-01-19 01:49:00,
2013-01-18 19:56:00,38.5,29.9,29.87,SSE,157,10.0,10.0,71,0.00,,,0.00,WUHU21023XXSP,2013-01-19 01:56:00,
2013-01-18 20:02:00,38.5,29.9,29.86,SSW,202,2.0,12.0,71,0.00,,,0.00,WUHU21023XXSP,2013-01-19 02:02:00,
2013-01-18 20:08:00,38.3,29.7,29.86,SSW,202,16.0,16.0,71,0.00,,,0.00,WUHU21023XXSP,2013-01-19 02:08:00,
2013-01-18 20:15:00,38.5,29.9,29.87,SW,225,14.0,16.0,71,0.00,,,0.00,WUHU21023XXSP,2013-01-19 02:15:00,
2013-01-18 20:21:00,38.5,29.9,29.86,SSW,202,7.0,14.0,71,0.00,,,0.00,WUHU21023XXSP,2013-01-19 02:21:00,
2013-01-18 20:28:00,38.5,29.9,29.86,SSW,202,6.0,11.0,71,0.00,,,0.00,WUHU21023XXSP,2013-01-19 02:28:00,
2013-01-18 20:34:00,38.5,29.9,29.85,SW,225,9.0,16.0,71,0.00,,,0.00,WUHU21023XXSP,2013-01-19 02:34:00,
2013-01-18 20:40:00,38.7,30.0,29.85,SW,225,14.0,18.0,71,0.00,,,0.00,WUHU21023XXSP,2013-01-19 02:40:00,
2013-01-18 20:47:00,38.8,30.2,29.85,SSW,202,8.0,18.0,71,0.00,,,0.00,WUHU21023XXSP,2013-01-19 02:47:00,
2013-01-18 20:53:00,38.8,30.2,29.85,SE,135,7.0,9.0,71,0.00,,,0.00,WUHU21023XXSP,2013-01-19 02:53:00,
2013-01-18 21:00:00,38.7,30.0,29.85,SSW,202,9.0,9.0,71,0.00,,,0.00,WUHU21023XXSP,2013-01-19 03:00:00,
2013-01-18 21:06:00,38.8,30.2,29.85,South,180,12.0,12.0,71,0.00,,,0.00,WUHU21023XXSP,2013-01-19 03:06:00,
2013-01-18 21:13:00,38.8,30.2,29.85,SW,225,10.0,16.0,71,0.00,,,0.00,WUHU21023XXSP,2013-01-19 03:13:00,
2013-01-18 21:19:00,38.7,30.0,29.85,SW,225,7.0,10.0,71,0.00,,,0.00,WUHU21023XXSP,2013-01-19 03:19:00,
2013-01-18 21:25:00,38.5,29.9,29.85,SW,225,6.0,11.0,71,0.00,,,0.00,WUHU21023XXSP,2013-01-19 03:25:00,
2013-01-18 21:32:00,38.5,29.9,29.85,SSE,157,7.0,7.0,71,0.00,,,0.00,WUHU21023XXSP,2013-01-19 03:32:00,
2013-01-18 21:38:00,38.5,29.9,29.85,SW,225,7.0,16.0,71,0.00,,,0.00,WUHU21023XXSP,2013-01-19 03:38:00,
2013-01-18 21:45:00,38.5,29.9,29.85,South,180,7.0,8.0,71,0.00,,,0.00,WUHU21023XXSP,2013-01-19 03:45:00,
2013-01-18 21:51:00,38.5,29.9,29.84,SSW,202,0.0,7.0,71,0.00,,,0.00,WUHU21023XXSP,2013-01-19 03:51:00,
2013-01-18 21:58:00,38.3,29.7,29.85,SW,225,7.0,10.0,71,0.00,,,0.00,WUHU21023XXSP,2013-01-19 03:58:00,
2013-01-18 22:04:00,38.1,29.6,29.84,South,180,0.0,10.0,71,0.00,,,0.00,WUHU21023XXSP,2013-01-19 04:04:00,
2013-01-18 22:10:00,38.1,29.6,29.84,SSW,202,7.0,11.0,71,0.00,,,0.00,WUHU21023XXSP,2013-01-19 04:10:00,
2013-01-18 22:17:00,38.1,29.6,29.84,SSW,202,5.0,10.0,71,0.00,,,0.00,WUHU21023XXSP,2013-01-19 04:17:00,
2013-01-18 22:23:00,38.1,29.6,29.84,SW,225,6.0,12.0,71,0.00,,,0.00,WUHU21023XXSP,2013-01-19 04:23:00,
2013-01-18 22:30:00,37.9,29.4,29.84,SSW,202,7.0,12.0,71,0.00,,,0.00,WUHU21023XXSP,2013-01-19 04:30:00,
2013-01-18 22:36:00,37.9,29.4,29.84,SW,225,11.0,11.0,71,0.00,,,0.00,WUHU21023XXSP,2013-01-19 04:36:00,
2013-01-18 22:42:00,37.9,29.4,29.83,SW,225,5.0,11.0,71,0.00,,,0.00,WUHU21023XXSP,2013-01-19 04:42:00,
2013-01-18 22:49:00,37.9,29.7,29.83,SW,225,7.0,16.0,72,0.00,,,0.00,WUHU21023XXSP,2013-01-19 04:49:00,
2013-01-18 22:55:00,37.9,29.7,29.83,South,180,13.0,13.0,72,0.00,,,0.00,WUHU21023XXSP,2013-01-19 04:55:00,
2013-01-18 23:02:00,38.1,29.9,29.83,WSW,247,10.0,13.0,72,0.00,,,0.00,WUHU21023XXSP,2013-01-19 05:02:00,
2013-01-18 23:04:00,38.1,29.9,29.84,SW,225,9.0,13.0,72,0.00,,,0.00,WUHU21023XXSP,2013-01-19 05:04:00,
2013-01-18 23:06:00,38.1,29.9,29.83,West,270,0.0,10.0,72,0.00,,,0.00,WUHU21023XXSP,2013-01-19 05:06:00,
2013-01-18 23:10:00,38.1,29.6,29.83,South,180,4.0,10.0,71,0.00,,,0.00,WUHU21023XXSP,2013-01-19 05:10:00,
2013-01-18 23:17:00,38.3,29.7,29.83,SSW,202,5.0,8.0,71,0.00,,,0.00,WUHU21023XXSP,2013-01-19 05:17:00,
2013-01-18 23:23:00,38.5,29.9,29.83,SSW,202,0.0,7.0,71,0.00,,,0.00,WUHU21023XXSP,2013-01-19 05:23:00,
2013-01-18 23:30:00,38.5,29.9,29.83,SSW,202,8.0,12.0,71,0.00,,,0.00,WUHU21023XXSP,2013-01-19 05:30:00,
2013-01-18 23:36:00,38.8,30.2,29.83,WSW,247,7.0,12.0,71,0.00,,,0.00,WUHU21023XXSP,2013-01-19 05:36:00,
2013-01-18 23:42:00,38.8,30.2,29.83,SW,225,8.0,8.0,71,0.00,,,0.00,WUHU21023XXSP,2013-01-19 05:42:00,
2013-01-18 23:49:00,38.8,30.2,29.83,SW,225,5.0,10.0,71,0.00,,,0.00,WUHU21023XXSP,2013-01-19 05:49:00,
2013-01-18 23:55:00,38.8,30.2,29.83,SW,225,7.0,11.0,71,0.00,,,0.00,WUHU21023XXSP,2013-01-19 05:55:00,